Pecs, Hungary

2:33 AM CEST on August 16, 2018 (GMT +0200)
Pecs

Weather History for LHPP - May, 2018

Change the Weather History Date:

Thursday, May 17, 2018

  Actual Average Record
Temperature  
Mean Temperature 60 °F -  
Max Temperature 70 °F 73 °F - ()
Min Temperature 49 °F 54 °F - ()
Degree Days  
Heating Degree Days 6    
Growing Degree Days 10 (Base 50)    
Moisture  
Dew Point 48 °F    
Average Humidity 56    
Maximum Humidity 78    
Minimum Humidity 35    
Precipitation  
Precipitation 0.00 in 0.10 in - ()
Sea Level Pressure  
Sea Level Pressure 29.96 in    
Wind  
Wind Speed 6 mph ()    
Max Wind Speed 13 mph    
Max Gust Speed -    
Visibility 6.2 miles    
Events      
T = Trace of Precipitation, MM = Missing Value Source: Averaged Metar Reports

Daily Weather History Graph

Daily Weather History Graph

Search for Another Location

Airport or City:

Astronomy

May. 17, 2018 Rise Set
Actual Time 5:12 AM CEST 8:14 PM CEST
Civil Twilight 4:37 AM CEST 8:50 PM CEST
Nautical Twilight 3:52 AM CEST 9:35 PM CEST
Astronomical Twilight 2:57 AM CEST 10:31 PM CEST
Moon 7:00 AM CEST (5/17) 10:30 PM CEST (5/17)
Length of Visible Light 16h 12m
Length of Day
15h 01m
Waxing Crescent, 5% of the Moon is Illuminated
May 17
Waxing Crescent
May 22
First Quarter
May 29
Full
Jun 6
Last Quarter
Jun 13
New

Hourly Weather History & Observations

Time (CEST) Temp. Dew Point Humidity Pressure Visibility Wind Dir Wind Speed Gust Speed Precip Events Conditions
12:00 AM 57 °F 49 °F 67% 29.95 in - SW 6.7 mph - -  
1:00 AM 56 °F 47 °F 65% 29.94 in - WSW 6.7 mph - -  
2:00 AM 53 °F 47 °F 73% 29.95 in - WSW 4.5 mph - -  
3:00 AM 51 °F 46 °F 78% 29.95 in - WSW 2.2 mph - -  
4:00 AM 51 °F 46 °F 77% 29.94 in - WNW 2.2 mph - -  
5:00 AM 50 °F 45 °F 77% 29.94 in - West 4.5 mph - -  
6:00 AM 51 °F 46 °F 75% 29.95 in - West 2.2 mph - -  
7:00 AM 54 °F 48 °F 73% 29.95 in - WSW 2.2 mph - -  
7:15 AM - - N/A% - - WSW 8.1 mph - N/A   Clear
7:45 AM 57.2 °F 46.4 °F 67% 29.95 in - WSW 5.8 mph - N/A   Clear
8:00 AM 57 °F 47 °F 60% 29.96 in 47 mi WSW 6.7 mph - -   Partly Cloudy
8:15 AM 57.2 °F 48.2 °F 72% 29.98 in - WSW 6.9 mph - N/A   Clear
8:45 AM 59.0 °F 48.2 °F 67% 29.98 in - WSW 6.9 mph - N/A   Clear
9:00 AM 59 °F 49 °F 59% 29.96 in 47 mi WSW 6.7 mph - -   Partly Cloudy
9:15 AM 60.8 °F 50.0 °F 68% 29.98 in - West 10.4 mph - N/A   Clear
9:45 AM 62.6 °F 48.2 °F 59% 29.98 in 6.2 mi WSW 9.2 mph - N/A   Scattered Clouds
10:00 AM 62 °F 49 °F 51% 29.96 in 47 mi WSW 8.9 mph - -   Partly Cloudy
10:15 AM - - N/A% - 6.2 mi WSW 9.2 mph - N/A   Mostly Cloudy
10:45 AM 64.4 °F 50.0 °F 59% 29.98 in 6.2 mi West 10.4 mph - N/A   Scattered Clouds
12:00 PM 66 °F 48 °F 42% 29.95 in 47 mi West 8.9 mph - -   Partly Cloudy
12:15 PM 66.2 °F 50.0 °F 56% 29.98 in 6.2 mi West 8.1 mph - N/A   Scattered Clouds
12:45 PM 68.0 °F 51.8 °F 56% 29.98 in 6.2 mi West 10.4 mph - N/A   Scattered Clouds
1:15 PM 68.0 °F 48.2 °F 49% 29.98 in 6.2 mi WSW 9.2 mph - N/A   Scattered Clouds
1:45 PM 66.2 °F 48.2 °F 52% 29.95 in 6.2 mi West 8.1 mph - N/A   Scattered Clouds
2:00 PM 67 °F 49 °F 41% 29.95 in 47 mi West 6.7 mph - -   Partly Cloudy
2:15 PM 68.0 °F 50.0 °F 52% 29.95 in 6.2 mi West 8.1 mph - N/A   Scattered Clouds
2:45 PM 68.0 °F 50.0 °F 52% 29.95 in 6.2 mi West 8.1 mph - N/A   Scattered Clouds
3:00 PM 67 °F 50 °F 43% 29.94 in 47 mi West 6.7 mph - -   Partly Cloudy
3:15 PM 69.8 °F 50.0 °F 49% 29.95 in 6.2 mi WSW 6.9 mph - N/A   Scattered Clouds
4:00 PM 69 °F 50 °F 39% 29.93 in 47 mi West 8.9 mph - -   Partly Cloudy
4:15 PM - - N/A% - 6.2 mi West 9.2 mph - N/A   Mostly Cloudy
4:45 PM 68.0 °F 50.0 °F 52% 29.95 in 6.2 mi West 8.1 mph - N/A   Scattered Clouds
5:00 PM 69 °F 49 °F 38% 29.92 in 47 mi West 8.9 mph - -   Partly Cloudy
5:15 PM 68.0 °F 50.0 °F 52% 29.95 in 6.2 mi West 8.1 mph - N/A   Scattered Clouds
5:45 PM 69.8 °F 48.2 °F 46% 29.95 in 6.2 mi WNW 9.2 mph - N/A   Scattered Clouds
6:00 PM 70 °F 48 °F 35% 29.92 in 47 mi WNW 8.9 mph - -   Partly Cloudy
6:15 PM 69.8 °F 48.2 °F 46% 29.95 in 6.2 mi West 12.7 mph - N/A   Scattered Clouds
6:45 PM 68.0 °F 48.2 °F 49% 29.95 in 6.2 mi West 9.2 mph - N/A   Partly Cloudy
7:00 PM 69 °F 47 °F 35% 29.93 in 47 mi West 8.9 mph - -   Partly Cloudy
8:00 PM 63 °F 49 °F 50% 29.96 in - North 8.9 mph - -  
9:00 PM 60 °F 49 °F 58% 29.98 in - NNW 6.7 mph - -  
10:00 PM 58 °F 49 °F 63% 29.99 in - North 2.2 mph - -